This is the latest recevied weather packets stored in our database for station/object VE4GLS. If no packets are shown the sender has not sent any weather packets the latest 10 day(s).
| Time | Temp. | Humidity | Pressure | Rain* | Wind** | Luminosity | Snow |
|---|---|---|---|---|---|---|---|
| 1778043755 | -0.56° C | 71% | 1013.8 hPa | 0 mm | - | - | - |
| 1778043383 | -0.56° C | 71% | 1013.8 hPa | 0 mm | - | - | - |
| 1778042855 | 0° C | 71% | 1013.7 hPa | 0 mm | - | - | - |
| 1778042783 | 0° C | 72% | 1013.7 hPa | 0 mm | - | - | - |
| 1778042183 | -0.56° C | 71% | 1013.7 hPa | 0 mm | - | - | - |
| 1778041955 | -0.56° C | 71% | 1013.7 hPa | 0 mm | - | - | - |
| 1778041583 | 0° C | 70% | 1013.7 hPa | 0 mm | - | - | - |
| 1778041055 | 0° C | 69% | 1013.7 hPa | 0 mm | - | - | - |
| 1778040983 | 0° C | 69% | 1013.7 hPa | 0 mm | - | - | - |
| 1778040382 | 0.56° C | 69% | 1013.8 hPa | 0 mm | - | - | - |
| 1778040155 | 0.56° C | 68% | 1013.8 hPa | 0 mm | - | - | - |
| 1778039783 | 0.56° C | 68% | 1013.9 hPa | 0 mm | - | - | - |
| 1778039255 | 1.11° C | 68% | 1013.8 hPa | 0 mm | - | - | - |
| 1778039183 | 1.11° C | 67% | 1013.9 hPa | 0 mm | - | - | - |
| 1778038582 | 1.11° C | 67% | 1013.8 hPa | 0 mm | - | - | - |
| 1778038354 | 1.11° C | 66% | 1013.8 hPa | 0 mm | - | - | - |
| 1778037982 | 1.11° C | 66% | 1013.8 hPa | 0 mm | - | - | - |
| 1778037456 | 1.67° C | 65% | 1013.7 hPa | 0 mm | - | - | - |
| 1778037384 | 1.67° C | 65% | 1013.7 hPa | 0 mm | - | - | - |
| 1778036784 | 1.67° C | 67% | 1013.7 hPa | 0 mm | - | - | - |
| 1778036556 | 1.67° C | 67% | 1013.6 hPa | 0 mm | - | - | - |
| 1778036183 | 1.67° C | 67% | 1013.6 hPa | 0 mm | - | - | - |
| 1778035654 | 2.22° C | 66% | 1013.6 hPa | 0 mm | - | - | - |
| 1778035582 | 2.22° C | 65% | 1013.6 hPa | 0 mm | - | - | - |
| 1778034982 | 2.22° C | 65% | 1013.4 hPa | 0 mm | - | - | - |
* Rain latest hour (hover to see other rain measurements)
** Current wind speed in m/s (hover to see current wind gust speed)